• In Deutschland
  • Länderverzeichnis
  • Für 7 Tage
  • Wassertemperatur
  • Satellitenkarten
  • Wetterkarte
  • Widgets
  • user-avatar
    Anmelden

    Stündliche Wetter Florencia

    Heute, 26 September, Dienstag

    Zeit Temperatur Niederschläge Wind Luftdruck Luftfeuchtigkeit
    00:00 +24°C° 0 mm 1 m/S 733 mmHg 77%
    01:00 +23°C° 0 mm 1 m/S 733 mmHg 76%
    02:00 +23°C° 0 mm 1 m/S 733 mmHg 75%
    03:00 +23°C° 0 mm 1 m/S 733 mmHg 74%
    04:00 +23°C° 0 mm 1 m/S 733 mmHg 73%
    05:00 +24°C° 0 mm 1 m/S 733 mmHg 71%
    06:00 +22°C° 0 mm 0 m/S 733 mmHg 69%
    07:00 +23°C° 0 mm 0 m/S 734 mmHg 67%
    08:00 +28°C° 0 mm 1 m/S 734 mmHg 58%
    09:00 +31°C° 0 mm 1 m/S 734 mmHg 50%
    10:00 +34°C° 0 mm 1 m/S 734 mmHg 41%
    11:00 +35°C° 0 mm 1 m/S 733 mmHg 39%
    12:00 +36°C° 0 mm 1 m/S 733 mmHg 36%
    13:00 +37°C° 0 mm 1 m/S 732 mmHg 34%
    14:00 +36°C° 0 mm 1 m/S 731 mmHg 35%
    15:00 +36°C° 0 mm 1 m/S 730 mmHg 37%
    16:00 +35°C° 0 mm 1 m/S 730 mmHg 38%
    17:00 +32°C° 0 mm 1 m/S 730 mmHg 47%
    18:00 +30°C° 0 mm 1 m/S 731 mmHg 57%
    19:00 +27°C° 0 mm 1 m/S 731 mmHg 66%
    20:00 +26°C° 0 mm 1 m/S 732 mmHg 67%
    21:00 +26°C° 0 mm 1 m/S 732 mmHg 69%
    22:00 +25°C° 0 mm 1 m/S 733 mmHg 71%
    23:00 +25°C° 0,2 mm 1 m/S 733 mmHg 70%

    Morgen, 27 September, Mittwoch

    Zeit Temperatur Niederschläge Wind Luftdruck Luftfeuchtigkeit
    00:00 +24°C° 0,2 mm 1 m/S 732 mmHg 70%
    01:00 +24°C° 0,2 mm 1 m/S 732 mmHg 70%
    02:00 +24°C° 0 mm 1 m/S 732 mmHg 70%
    03:00 +24°C° 0 mm 1 m/S 732 mmHg 71%
    04:00 +24°C° 0 mm 1 m/S 731 mmHg 71%
    05:00 +24°C° 0 mm 1 m/S 732 mmHg 70%
    06:00 +25°C° 0 mm 1 m/S 732 mmHg 68%
    07:00 +26°C° 0 mm 1 m/S 733 mmHg 67%
    08:00 +29°C° 0 mm 1 m/S 733 mmHg 59%
    09:00 +32°C° 0 mm 1 m/S 733 mmHg 50%
    10:00 +35°C° 0 mm 1 m/S 734 mmHg 42%
    11:00 +35°C° 0 mm 1 m/S 733 mmHg 42%
    12:00 +36°C° 0 mm 1 m/S 732 mmHg 42%
    13:00 +36°C° 0 mm 1 m/S 731 mmHg 42%
    14:00 +36°C° 0,1 mm 1 m/S 730 mmHg 45%
    15:00 +35°C° 0,1 mm 1 m/S 729 mmHg 48%
    16:00 +34°C° 0,1 mm 1 m/S 729 mmHg 51%
    17:00 +32°C° 0,3 mm 1 m/S 729 mmHg 59%
    18:00 +30°C° 0,3 mm 1 m/S 730 mmHg 67%
    19:00 +28°C° 0,3 mm 1 m/S 731 mmHg 76%
    20:00 +27°C° 0,7 mm 1 m/S 731 mmHg 80%
    21:00 +26°C° 0,7 mm 1 m/S 732 mmHg 84%
    22:00 +25°C° 0,7 mm 1 m/S 733 mmHg 88%
    23:00 +25°C° 0,2 mm 1 m/S 732 mmHg 87%

    übermorgen, 28 September, Donnerstag

    Zeit Temperatur Niederschläge Wind Luftdruck Luftfeuchtigkeit
    00:00 +25°C° 0,2 mm 1 m/S 732 mmHg 86%
    01:00 +25°C° 0,2 mm 1 m/S 731 mmHg 86%
    02:00 +24°C° 0,1 mm 1 m/S 731 mmHg 85%
    03:00 +24°C° 0,1 mm 1 m/S 731 mmHg 83%
    04:00 +24°C° 0,1 mm 1 m/S 730 mmHg 82%
    05:00 +25°C° 0,1 mm 1 m/S 731 mmHg 80%
    06:00 +26°C° 0,1 mm 1 m/S 732 mmHg 77%
    07:00 +24°C° 0,1 mm 0 m/S 733 mmHg 75%
    08:00 +29°C° 0 mm 1 m/S 733 mmHg 66%
    09:00 +32°C° 0 mm 1 m/S 733 mmHg 56%
    10:00 +35°C° 0 mm 1 m/S 734 mmHg 47%
    11:00 +35°C° 0,2 mm 1 m/S 733 mmHg 48%
    12:00 +36°C° 0,2 mm 1 m/S 732 mmHg 48%
    13:00 +36°C° 0,2 mm 1 m/S 731 mmHg 49%
    14:00 +35°C° 0,4 mm 1 m/S 730 mmHg 51%
    15:00 +35°C° 0,4 mm 1 m/S 729 mmHg 53%
    16:00 +34°C° 0,4 mm 1 m/S 729 mmHg 55%
    17:00 +32°C° 0,6 mm 1 m/S 729 mmHg 62%
    18:00 +30°C° 0,6 mm 1 m/S 730 mmHg 69%
    19:00 +28°C° 0,6 mm 1 m/S 731 mmHg 76%
    20:00 +27°C° 1,1 mm 1 m/S 731 mmHg 81%
    21:00 +26°C° 1,1 mm 1 m/S 732 mmHg 86%
    22:00 +25°C° 1,1 mm 1 m/S 733 mmHg 91%
    23:00 +25°C° 0,4 mm 1 m/S 732 mmHg 91%

    29 September, Freitag

    Zeit Temperatur Niederschläge Wind Luftdruck Luftfeuchtigkeit
    00:00 +25°C° 0,4 mm 1 m/S 732 mmHg 90%
    01:00 +25°C° 0,4 mm 1 m/S 731 mmHg 90%
    02:00 +25°C° 0,4 mm 1 m/S 731 mmHg 89%
    03:00 +24°C° 0,4 mm 1 m/S 731 mmHg 88%
    04:00 +22°C° 0,4 mm 0 m/S 731 mmHg 88%
    05:00 +23°C° 0,2 mm 0 m/S 732 mmHg 86%
    06:00 +23°C° 0,2 mm 0 m/S 733 mmHg 84%
    07:00 +24°C° 0,2 mm 0 m/S 733 mmHg 83%
    08:00 +27°C° 0,1 mm 0 m/S 734 mmHg 73%
    09:00 +29°C° 0,1 mm 0 m/S 734 mmHg 63%
    10:00 +32°C° 0,1 mm 0 m/S 734 mmHg 54%
    11:00 +34°C° 0,3 mm 1 m/S 733 mmHg 53%
    12:00 +35°C° 0,3 mm 1 m/S 732 mmHg 52%
    13:00 +35°C° 0,3 mm 1 m/S 731 mmHg 51%
    14:00 +35°C° 0,4 mm 1 m/S 730 mmHg 52%
    15:00 +34°C° 0,4 mm 1 m/S 730 mmHg 54%
    16:00 +34°C° 0,4 mm 1 m/S 730 mmHg 56%
    17:00 +31°C° 0,7 mm 1 m/S 730 mmHg 65%
    18:00 +29°C° 0,7 mm 1 m/S 731 mmHg 74%
    19:00 +27°C° 0,7 mm 1 m/S 731 mmHg 83%
    20:00 +27°C° 0,9 mm 1 m/S 732 mmHg 85%
    21:00 +26°C° 0,9 mm 1 m/S 732 mmHg 87%
    22:00 +25°C° 0,9 mm 1 m/S 733 mmHg 90%
    23:00 +25°C° 0,8 mm 1 m/S 732 mmHg 90%

    30 September, Samstag

    Zeit Temperatur Niederschläge Wind Luftdruck Luftfeuchtigkeit
    00:00 +25°C° 0,8 mm 1 m/S 732 mmHg 89%
    01:00 +24°C° 0,8 mm 1 m/S 731 mmHg 89%
    02:00 +24°C° 0,4 mm 1 m/S 731 mmHg 89%
    03:00 +24°C° 0,4 mm 1 m/S 731 mmHg 88%
    04:00 +24°C° 0,4 mm 1 m/S 731 mmHg 87%
    05:00 +25°C° 0,6 mm 1 m/S 732 mmHg 85%
    06:00 +25°C° 0,6 mm 1 m/S 732 mmHg 84%
    07:00 +26°C° 0,6 mm 1 m/S 733 mmHg 82%
    08:00 +28°C° 0,5 mm 1 m/S 733 mmHg 76%
    09:00 +30°C° 0,5 mm 1 m/S 733 mmHg 69%
    10:00 +32°C° 0,5 mm 1 m/S 733 mmHg 63%
    11:00 +32°C° 0,3 mm 1 m/S 732 mmHg 60%
    12:00 +33°C° 0,3 mm 1 m/S 731 mmHg 57%
    13:00 +34°C° 0,3 mm 1 m/S 730 mmHg 53%
    14:00 +34°C° 0,1 mm 1 m/S 730 mmHg 53%
    15:00 +34°C° 0,1 mm 1 m/S 729 mmHg 53%
    16:00 +32°C° 0,1 mm 0 m/S 729 mmHg 53%
    17:00 +32°C° 0,2 mm 1 m/S 729 mmHg 59%
    18:00 +30°C° 0,2 mm 1 m/S 730 mmHg 66%
    19:00 +28°C° 0,2 mm 1 m/S 731 mmHg 72%
    20:00 +27°C° 0,2 mm 1 m/S 731 mmHg 74%
    21:00 +26°C° 0,2 mm 1 m/S 731 mmHg 75%
    22:00 +26°C° 0,2 mm 1 m/S 732 mmHg 77%
    23:00 +26°C° 0,2 mm 1 m/S 731 mmHg 77%

    1 Oktober, Sonntag

    Zeit Temperatur Niederschläge Wind Luftdruck Luftfeuchtigkeit
    00:00 +25°C° 0,2 mm 1 m/S 731 mmHg 78%
    01:00 +25°C° 0,2 mm 1 m/S 730 mmHg 78%
    02:00 +25°C° 0,2 mm 1 m/S 730 mmHg 79%
    03:00 +24°C° 0,2 mm 1 m/S 730 mmHg 80%
    04:00 +24°C° 0,2 mm 1 m/S 730 mmHg 80%
    05:00 +25°C° 0,1 mm 1 m/S 730 mmHg 78%
    06:00 +25°C° 0,1 mm 1 m/S 731 mmHg 76%
    07:00 +26°C° 0,1 mm 1 m/S 731 mmHg 74%
    08:00 +29°C° 0,1 mm 1 m/S 731 mmHg 66%
    09:00 +30°C° 0,1 mm 0 m/S 731 mmHg 58%
    10:00 +33°C° 0,1 mm 0 m/S 732 mmHg 50%
    11:00 +35°C° 0,3 mm 1 m/S 731 mmHg 50%
    12:00 +35°C° 0,3 mm 1 m/S 730 mmHg 50%
    13:00 +35°C° 0,3 mm 1 m/S 729 mmHg 50%
    14:00 +35°C° 0,5 mm 1 m/S 728 mmHg 52%
    15:00 +34°C° 0,5 mm 1 m/S 728 mmHg 55%
    16:00 +33°C° 0,5 mm 1 m/S 727 mmHg 57%
    17:00 +32°C° 0,4 mm 1 m/S 728 mmHg 62%
    18:00 +30°C° 0,4 mm 1 m/S 729 mmHg 68%
    19:00 +28°C° 0,4 mm 1 m/S 729 mmHg 73%
    20:00 +27°C° 0,2 mm 1 m/S 730 mmHg 74%
    21:00 +27°C° 0,2 mm 1 m/S 730 mmHg 76%
    22:00 +26°C° 0,2 mm 1 m/S 730 mmHg 77%
    23:00 +26°C° 0,2 mm 1 m/S 730 mmHg 77%
    Mehr zeigen